IK2CHZ Weather Reports


Display with metric or nautical units.
time (UTC)temp
F
wind
direction
speed
MPH
gust
MPH
rain 1hr
in
rain 24hr
in
rain mn
in
humidity
%
barometer
mb
20260507063504 58 355 0.0 2.0 0.00 0.31 0.00 81 1012.8
20260507063004 58 355 0.0 0.0 0.00 0.31 0.00 82 1013.0
20260507062503 58 355 0.0 0.0 0.00 0.31 0.00 82 1012.9
20260507062003 57 355 0.0 0.0 0.00 0.31 0.00 82 1012.8
20260507061004 57 355 0.0 1.0 0.00 0.31 0.00 83 1012.7
20260507060503 56 355 1.0 2.0 0.00 0.31 0.00 83 1012.7
20260507055504 56 355 0.0 2.0 0.00 0.31 0.00 83 1012.6
20260507054004 56 355 0.0 1.0 0.00 0.31 0.00 84 1012.6
20260507053504 56 355 0.0 1.0 0.00 0.31 0.00 84 1012.5
20260507052003 55 355 1.0 2.0 0.00 0.31 0.00 85 1012.4
20260507051503 55 355 0.0 2.0 0.00 0.32 0.00 85 1012.3
20260507050003 56 355 0.0 0.0 0.00 0.32 0.00 85 1012.0
20260507045503 56 355 0.0 0.0 0.00 0.32 0.00 85 1011.9
20260507043503 55 355 0.0 0.0 0.00 0.40 0.00 85 1011.8
20260507042503 55 355 0.0 1.0 0.00 0.45 0.00 85 1011.6
20260507032504 55 346 1.0 2.0 0.00 0.57 0.00 86 1011.3
20260507032003 55 344 1.0 2.0 0.00 0.57 0.00 85 1011.3
20260507031503 55 344 1.0 2.0 0.00 0.57 0.00 85 1011.3
20260507030004 55 346 1.0 3.0 0.00 0.57 0.00 84 1011.3
20260507025504 55 346 1.0 2.0 0.00 0.57 0.00 84 1011.3
20260507023503 55 346 1.0 2.0 0.00 0.57 0.00 84 1011.2
20260507023003 55 346 0.0 3.0 0.00 0.57 0.00 83 1011.1
20260507022004 55 338 1.0 3.0 0.00 0.57 0.00 83 1011.2
20260507021004 55 333 1.0 3.0 0.00 0.57 0.00 82 1011.2
20260507015504 56 335 1.0 3.0 0.00 0.57 0.00 82 1011.2
20260507014504 56 331 1.0 3.0 0.00 0.57 0.00 82 1011.2
20260507013504 56 335 2.0 3.0 0.00 0.57 0.00 81 1011.1
20260507013004 56 333 1.0 3.0 0.00 0.57 0.00 82 1011.1
20260507012004 56 333 1.0 3.0 0.00 0.57 0.00 81 1011.2
20260507011004 57 347 2.0 3.0 0.00 0.57 0.00 80 1011.0
20260507005504 57 4 2.0 3.0 0.00 0.57 0.00 80 1010.8
20260507005004 57 355 1.0 3.0 0.00 0.57 0.00 80 1010.8
20260507004004 57 0 2.0 3.0 0.00 0.57 0.00 80 1011.0
20260507003504 57 0 2.0 3.0 0.00 0.57 0.00 80 1011.0
20260507002504 57 3 1.0 3.0 0.00 0.57 0.00 80 1011.0
20260507000504 57 356 1.0 3.0 0.00 0.57 0.00 81 1011.0
20260507000004 57 3 1.0 3.0 0.00 0.57 0.00 80 1011.1
20260506235504 57 11 1.0 3.0 0.00 0.57 0.00 81 1010.9
20260506235004 57 6 1.0 3.0 0.00 0.57 0.00 81 1011.0
20260506233504 57 355 1.0 3.0 0.00 0.57 0.00 81 1011.0
20260506231004 57 355 1.0 2.0 0.00 0.57 0.00 81 1010.6
20260506230004 57 355 1.0 3.0 0.00 0.57 0.00 80 1010.4
20260506225503 57 0 1.0 3.0 0.00 0.57 0.00 80 1010.4
20260506225004 57 0 1.0 3.0 0.00 0.57 0.00 80 1010.5
20260506224503 57 0 1.0 3.0 0.00 0.57 0.00 80 1010.4
20260506223504 57 9 1.0 3.0 0.00 0.57 0.00 80 1010.5
20260506222503 57 12 1.0 2.0 0.00 0.57 0.00 80 1010.6
20260506215504 58 13 1.0 2.0 0.00 0.57 0.57 77 1010.5
20260506214504 58 13 1.0 2.0 0.00 0.57 0.57 76 1010.3
20260506213504 59 19 1.0 3.0 0.00 0.57 0.57 75 1010.4
20260506213004 59 21 1.0 3.0 0.00 0.57 0.57 75 1010.4
20260506212004 58 25 2.0 3.0 0.00 0.57 0.57 76 1010.4
20260506211503 58 18 1.0 3.0 0.00 0.57 0.57 77 1010.4
20260506211003 58 11 1.0 3.0 0.00 0.57 0.57 77 1010.3
20260506210503 58 9 1.0 3.0 0.00 0.57 0.57 78 1010.3
20260506210004 58 11 1.0 3.0 0.00 0.57 0.57 78 1010.2
20260506205504 58 18 1.0 3.0 0.00 0.57 0.57 78 1010.2
20260506205003 58 10 2.0 5.0 0.00 0.58 0.57 78 1010.3
20260506204503 58 10 2.0 3.0 0.00 0.58 0.57 77 1010.2
20260506204003 58 24 1.0 5.0 0.00 0.59 0.57 77 1010.2
20260506203504 58 8 2.0 5.0 0.00 0.60 0.57 77 1010.2
20260506202503 58 353 2.0 5.0 0.00 0.62 0.57 77 1009.9
20260506201504 58 14 2.0 6.0 0.00 0.63 0.57 77 1009.9
20260506201004 58 1 2.0 6.0 0.00 0.68 0.57 78 1009.9
20260506195504 57 354 3.0 6.0 0.00 0.69 0.57 81 1010.0
20260506194503 57 4 4.0 12.0 0.00 0.69 0.57 82 1009.9
20260506194004 58 333 2.0 6.0 0.00 0.69 0.57 82 1009.9
20260506193004 58 338 2.0 5.0 0.00 0.69 0.57 80 1009.6
20260506192004 59 319 1.0 3.0 0.00 0.69 0.57 78 1009.5
20260506191504 59 344 1.0 3.0 0.00 0.69 0.57 77 1009.4
20260506191004 59 12 2.0 3.0 0.00 0.69 0.57 76 1009.3
20260506190004 59 13 1.0 3.0 0.00 0.69 0.57 76 1009.2
20260506185003 59 3 1.0 5.0 0.00 0.69 0.57 76 1009.0
20260506184504 59 4 1.0 3.0 0.00 0.69 0.57 76 1008.9
20260506183005 60 3 3.0 5.0 0.00 0.69 0.57 75 1008.7
20260506182504 60 18 2.0 3.0 0.00 0.69 0.57 75 1008.7
20260506181503 60 17 1.0 3.0 0.00 0.69 0.57 74 1008.5
20260506180503 60 36 3.0 9.0 0.00 0.69 0.57 74 1008.3
20260506174503 61 25 3.0 12.0 0.00 0.69 0.57 74 1008.0
20260506173004 61 358 5.0 14.0 0.00 0.69 0.57 73 1007.8
20260506171504 63 8 6.0 12.0 0.00 0.69 0.57 71 1007.7
20260506170504 64 359 7.0 16.0 0.00 0.69 0.57 67 1007.4
20260506165504 67 328 2.0 9.0 0.00 0.69 0.57 63 1006.9
20260506165003 70 9 6.0 13.0 0.00 0.69 0.57 55 1006.9
20260506163504 71 167 5.0 7.0 0.00 0.69 0.57 48 1006.2
20260506162503 71 185 5.0 12.0 0.00 0.69 0.57 48 1006.1
20260506162003 71 199 7.0 16.0 0.00 0.69 0.57 48 1006.0
20260506161504 72 187 7.0 17.0 0.00 0.69 0.57 49 1006.0
20260506160504 71 137 5.0 14.0 0.00 0.69 0.57 57 1005.9
20260506160003 71 146 9.0 16.0 0.00 0.69 0.57 70 1005.9
20260506155004 71 108 10.0 21.0 0.00 0.69 0.57 71 1006.0
20260506154003 71 117 4.0 15.0 0.00 0.69 0.57 72 1006.1
20260506153504 70 122 6.0 12.0 0.00 0.69 0.57 73 1006.1
20260506151003 69 94 9.0 18.0 0.00 0.69 0.57 75 1006.3
20260506150504 69 104 9.0 17.0 0.00 0.69 0.57 76 1006.3
20260506150004 69 108 6.0 12.0 0.00 0.69 0.57 76 1006.4
20260506144504 69 114 7.0 13.0 0.00 0.69 0.57 76 1006.8
20260506141504 68 112 5.0 16.0 0.00 0.69 0.57 77 1007.0
20260506141004 68 111 9.0 17.0 0.00 0.69 0.57 77 1007.1
20260506140003 68 101 5.0 15.0 0.00 0.69 0.57 77 1007.4
20260506134504 67 113 6.0 15.0 0.00 0.69 0.57 80 1007.5
20260506134003 66 112 5.0 15.0 0.00 0.69 0.57 81 1007.6
20260506133504 66 94 7.0 14.0 0.00 0.69 0.57 80 1007.7
20260506132504 66 112 7.0 12.0 0.00 0.69 0.57 80 1007.8
20260506132003 66 111 6.0 16.0 0.00 0.69 0.57 80 1007.9
20260506131504 67 96 5.0 16.0 0.00 0.70 0.57 80 1007.9
20260506130004 66 107 4.0 15.0 0.00 0.70 0.57 81 1008.0
20260506125004 66 92 9.0 14.0 0.00 0.70 0.57 80 1008.0
20260506124504 66 75 7.0 13.0 0.00 0.70 0.57 81 1008.0
20260506124004 65 73 6.0 12.0 0.00 0.70 0.57 81 1008.0
20260506123003 65 91 5.0 12.0 0.00 0.70 0.57 81 1008.0
20260506122503 65 96 6.0 14.0 0.00 0.70 0.57 81 1008.2
20260506122004 65 103 8.0 14.0 0.00 0.70 0.57 81 1008.2
20260506115504 65 96 4.0 14.0 0.00 0.70 0.57 84 1008.3
20260506115003 64 85 6.0 14.0 0.00 0.70 0.57 85 1008.4
20260506114504 64 106 5.0 10.0 0.00 0.70 0.57 85 1008.5
20260506113004 63 105 7.0 17.0 0.00 0.70 0.57 86 1008.6
20260506112504 63 95 9.0 15.0 0.00 0.70 0.57 87 1008.6
20260506111504 63 105 5.0 14.0 0.00 0.70 0.57 88 1008.5
20260506105504 63 95 7.0 14.0 0.00 0.70 0.57 88 1008.7
20260506105004 62 93 7.0 15.0 0.00 0.70 0.57 89 1008.7
20260506103504 61 91 6.0 13.0 0.02 0.70 0.57 90 1008.7
20260506102504 61 90 6.0 14.0 0.07 0.70 0.57 90 1008.8
20260506101003 61 79 7.0 17.0 0.08 0.70 0.57 91 1008.8
20260506100504 60 105 6.0 15.0 0.09 0.70 0.57 92 1008.8
20260506092004 58 85 6.0 13.0 0.18 0.63 0.50 92 1008.9
20260506091504 58 88 7.0 10.0 0.19 0.63 0.50 92 1008.9
20260506090504 58 74 2.0 5.0 0.20 0.61 0.48 92 1009.4
20260506085504 58 76 1.0 2.0 0.11 0.53 0.39 92 1009.6
20260506085004 58 76 0.0 5.0 0.09 0.53 0.37 92 1009.5
20260506084004 58 81 3.0 9.0 0.06 0.51 0.34 92 1008.9
20260506083504 58 84 5.0 13.0 0.05 0.50 0.33 92 1008.7
20260506083004 58 83 6.0 16.0 0.04 0.49 0.32 92 1008.8